Weather History for Los Angeles, CA

Change the Weather History Date:

Wednesday, October 26, 2011

  Actual Average Record
Temperature  
Mean Temperature 62 °F 65 °F  
Max Temperature 66 °F 72 °F 91 °F (1983)
Min Temperature 58 °F 58 °F 49 °F (1975)
Degree Days  
Heating Degree Days 3 2  
Month to date heating degree days 44 26  
Since 1 July heating degree days 50 35  
Cooling Degree Days 0 2  
Month to date cooling degree days 46 59  
Year to date cooling degree days 392 527  
Growing Degree Days 12 (Base 50)    
Moisture  
Dew Point 54 °F    
Average Humidity 72    
Maximum Humidity 87    
Minimum Humidity 56    
Precipitation  
Precipitation 0.00 in 0.02 in 0.90 in (2004)
Month to date precipitation 0.63 0.42  
Year to date precipitation 7.51 9.52  
Since 1 July precipitation 0.64 0.71  
Sea Level Pressure  
Sea Level Pressure 30.02 in    
Wind  
Wind Speed 7 mph (WSW)    
Max Wind Speed 14 mph    
Max Gust Speed 18 mph    
Visibility 10 miles    
Events      
T = Trace of Precipitation, MM = Missing Value Source: NWS Daily Summary

Daily Weather History Graph

Daily Weather History Graph

Search for Another Location

Airport:

Trip Planner

Search our weather history database for the weather conditions in past years. The results will help you decide how hot, cold, wet, or windy it might be!

Date:

Astronomy

Oct. 26, 2011 Rise Set
Actual Time 7:07 AM PDT 6:07 PM PDT
Civil Twilight 6:41 AM PDT 6:32 PM PDT
Nautical Twilight 6:12 AM PDT 7:01 PM PDT
Astronomical Twilight 5:43 AM PDT 7:30 PM PDT
Moon 6:58 AM PDT (10/26) 5:56 PM PDT (10/26)
Length of Visible Light 11h 50m
Length of Day
10h 59m
Waning Crescent, 0% of the Moon is Illuminated
Oct 26
Waning Crescent
Oct 26
New
Nov 2
First Quarter
Nov 10
Full
Nov 18
Last Quarter

Hourly Weather History & Observations

Time (PDT) Temp. Dew Point Humidity Pressure Visibility Wind Dir Wind Speed Gust Speed Precip Events Conditions
12:53 AM 61.0 °F 55.9 °F 83% 30.02 in 10.0 mi West 6.9 mph - N/A   Scattered Clouds
1:00 AM - - N/A% - - North - - N/A   Unknown
1:53 AM 61.0 °F 55.0 °F 81% 30.02 in 10.0 mi West 4.6 mph - N/A   Mostly Cloudy
2:53 AM 60.1 °F 55.9 °F 86% 30.02 in 10.0 mi West 8.1 mph - N/A   Scattered Clouds
3:53 AM 59.0 °F 54.0 °F 83% 30.01 in 10.0 mi WNW 3.5 mph - N/A   Scattered Clouds
4:53 AM 60.1 °F 53.1 °F 78% 30.02 in 10.0 mi WNW 4.6 mph - N/A   Scattered Clouds
5:53 AM 57.9 °F 53.1 °F 84% 30.02 in 10.0 mi West 5.8 mph - N/A   Scattered Clouds
6:53 AM 59.0 °F 53.1 °F 81% 30.03 in 10.0 mi West 8.1 mph - N/A   Scattered Clouds
7:53 AM 57.9 °F 53.1 °F 84% 30.04 in 10.0 mi West 8.1 mph - N/A   Scattered Clouds
8:53 AM 61.0 °F 52.0 °F 72% 30.06 in 10.0 mi West 6.9 mph - N/A   Clear
9:53 AM 62.1 °F 53.1 °F 72% 30.07 in 10.0 mi WSW 9.2 mph - N/A   Partly Cloudy
10:53 AM 64.0 °F 48.9 °F 58% 30.07 in 10.0 mi West 11.5 mph - N/A   Partly Cloudy
11:53 AM 64.9 °F 50.0 °F 58% 30.07 in 10.0 mi WSW 10.4 mph - N/A   Partly Cloudy
12:53 PM 66.0 °F 51.1 °F 59% 30.05 in 10.0 mi West 10.4 mph - N/A   Partly Cloudy
1:53 PM 64.9 °F 53.1 °F 65% 30.02 in 10.0 mi West 11.5 mph - N/A   Clear
2:53 PM 64.0 °F 53.1 °F 67% 30.01 in 10.0 mi WSW 12.7 mph - N/A   Clear
3:53 PM 64.0 °F 53.1 °F 67% 29.99 in 10.0 mi WSW 11.5 mph - N/A   Clear
4:53 PM 63.0 °F 53.1 °F 70% 29.99 in 10.0 mi WSW 9.2 mph - N/A   Clear
5:53 PM 62.1 °F 54.0 °F 75% 29.99 in 10.0 mi WSW 6.9 mph - N/A   Partly Cloudy
6:53 PM 61.0 °F 55.9 °F 83% 29.99 in 10.0 mi SW 6.9 mph - N/A   Partly Cloudy
7:53 PM 61.0 °F 55.9 °F 83% 30.00 in 10.0 mi West 6.9 mph - N/A   Clear
8:53 PM 61.0 °F 55.9 °F 83% 30.00 in 10.0 mi South 3.5 mph - N/A   Partly Cloudy
9:53 PM 60.1 °F 55.9 °F 86% 30.01 in 10.0 mi SSE 3.5 mph - N/A   Clear
10:53 PM 60.1 °F 55.9 °F 86% 30.02 in 10.0 mi Calm Calm - N/A   Clear
11:53 PM 59.0 °F 55.9 °F 90% 30.01 in 10.0 mi Calm Calm - N/A   Clear